"Pseudo-MPEC" for C0VE4V5
Created 2024 Dec 8 4:31:02 UT using Find_Orb
Click here for an explanation of pseudo-MPECs
Astrometry:
C0VE4V5* C2024 11 26.44061707 22 40.469+31 40 31.62 ~BQBV 22.59GVNEOCPV00
C0VE4V5 C2024 11 26.44624507 22 40.076+31 40 07.54 ~BQBV 22.35GVNEOCPV00
C0VE4V5 C2024 11 26.45185407 22 39.702+31 39 43.13 ~BQBV 22.65GVNEOCPV00
C0VE4V5 C2024 11 26.45746707 22 39.313+31 39 18.43 ~BQBV VNEOCPV00
C0VE4V5 C2024 11 26.50488007 22 36.060+31 35 55.90 ~BQDH VNEOCP291
C0VE4V5 C2024 11 26.52142007 22 35.030+31 34 43.40 ~BQDH VNEOCP291
Station data:
(291) LPL/Spacewatch II (N31.961669 W111.599905) US/Arizona. Observers J.
V. Scotti, R. S. McMillan. 1.8-m f/2.7 reflector + CCD.
(V00) Kitt Peak-Bok (N31.963125 W111.600190) US/Arizona. Observers T. A.
Pruyne, B. M. Africano, E. J. Christensen, G. A. Farneth, D. C. Fuls, A.
R. Gibbs, A. D. Grauer, H. Gröller, J. A. Johnson, R. A. Kowalski, S. M.
Larson, G. J. Leonard, D. Rankin, R. L. Seaman, F. C. Shelly, K. W.
Wierzchoś. 2.25-m reflector + 4x4K mosaic CCD.
Orbital elements: C0VE4V5
Perihelion 2025 Mar 2.74011 +/- 58.4 TT = 17:45:45 (JD 2460737.24011)
Epoch 2024 Nov 26.0 TT = JDT 2460640.5 Earth MOID: 0.1327 Ve: 0.0217
M 274.61847437 +/- 52 (J2000 ecliptic) AutoNEOCP
n 0.88258660 +/- 0.349 Peri. 303.32786 +/- 60
a 1.07637721 +/- 0.284 Node 256.66321 +/- 2.9
e 0.3914352 +/- 0.157 Incl. 31.43725 +/- 12
P 1.117/407.884d H 23.81 G 0.15 U 12.0 SR
q 0.65504521 +/- 0.258 Q 1.49770920 +/- 1.11
From 6 observations 2024 Nov. 26 (1.9 hr); mean residual 0".40
Residuals in arcseconds: 241126 V00 .11+ .37+ 241126 V00 .07+ .14- 241126 291 .56- .59+ 241126 V00 .03- .31+ 241126 V00 .03- .83- 241126 291 .44+ .30- Ephemerides (geocentric): Date (UTC) HH RA Dec delta r elong mag " sig PA ---- -------- ------------ ------------ ------ ------ ----- --- -------- 2024 12 08 05 06 59 38.816 +07 47 17.93 .16373 1.1268 147.7 21.4 396' 170 2024 12 08 06 06 59 30.607 +07 39 14.50 .16345 1.1265 147.7 21.4 400' 170 2024 12 08 07 06 59 22.368 +07 31 09.46 .16317 1.1263 147.7 21.4 404' 170 2024 12 08 08 06 59 14.100 +07 23 02.82 .16289 1.1260 147.7 21.4 408' 170 2024 12 08 09 06 59 05.802 +07 14 54.58 .16262 1.1258 147.7 21.4 412' 170 2024 12 08 10 06 58 57.475 +07 06 44.73 .16234 1.1255 147.7 21.4 416' 169 2024 12 08 11 06 58 49.117 +06 58 33.28 .16207 1.1253 147.6 21.4 420' 169 2024 12 08 12 06 58 40.730 +06 50 20.22 .16180 1.1250 147.6 21.4 424' 169 2024 12 08 13 06 58 32.313 +06 42 05.56 .16152 1.1247 147.6 21.3 429' 169 2024 12 08 14 06 58 23.865 +06 33 49.28 .16125 1.1245 147.6 21.3 433' 169 2024 12 08 15 06 58 15.388 +06 25 31.40 .16098 1.1242 147.6 21.3 437' 169 2024 12 08 16 06 58 06.880 +06 17 11.91 .16071 1.1240 147.6 21.3 442' 169 2024 12 08 17 06 57 58.343 +06 08 50.80 .16045 1.1237 147.6 21.3 446' 169 2024 12 08 18 06 57 49.774 +06 00 28.09 .16018 1.1235 147.6 21.3 450' 169 2024 12 08 19 06 57 41.176 +05 52 03.76 .15992 1.1232 147.6 21.3 455' 169 2024 12 08 20 06 57 32.546 +05 43 37.82 .15965 1.1229 147.5 21.3 459' 169 2024 12 08 21 06 57 23.886 +05 35 10.26 .15939 1.1227 147.5 21.3 464' 169 2024 12 08 22 06 57 15.196 +05 26 41.09 .15913 1.1224 147.5 21.3 468' 169 2024 12 08 23 06 57 06.474 +05 18 10.31 .15887 1.1222 147.5 21.3 473' 169 2024 12 09 00 06 56 57.722 +05 09 37.91 .15861 1.1219 147.5 21.3 477' 169 2024 12 09 01 06 56 48.939 +05 01 03.90 .15835 1.1217 147.5 21.3 482' 169 2024 12 09 02 06 56 40.124 +04 52 28.28 .15809 1.1214 147.4 21.3 486' 169 2024 12 09 03 06 56 31.279 +04 43 51.04 .15783 1.1211 147.4 21.3 491' 169 2024 12 09 04 06 56 22.402 +04 35 12.18 .15758 1.1209 147.4 21.3 496' 169 2024 12 09 05 06 56 13.494 +04 26 31.72 .15732 1.1206 147.4 21.3 500' 169 2024 12 09 06 06 56 04.554 +04 17 49.64 .15707 1.1204 147.4 21.3 505' 169 2024 12 09 07 06 55 55.583 +04 09 05.94 .15682 1.1201 147.3 21.3 510' 169 2024 12 09 08 06 55 46.581 +04 00 20.64 .15657 1.1198 147.3 21.3 514' 169 2024 12 09 09 06 55 37.546 +03 51 33.72 .15632 1.1196 147.3 21.3 519' 169 2024 12 09 10 06 55 28.480 +03 42 45.19 .15607 1.1193 147.3 21.3 524' 169 2024 12 09 11 06 55 19.382 +03 33 55.05 .15583 1.1191 147.2 21.3 529' 169 2024 12 09 12 06 55 10.252 +03 25 03.30 .15558 1.1188 147.2 21.3 534' 169 2024 12 09 13 06 55 01.090 +03 16 09.94 .15533 1.1186 147.2 21.3 539' 169 2024 12 09 14 06 54 51.896 +03 07 14.98 .15509 1.1183 147.1 21.3 544' 169 2024 12 09 15 06 54 42.670 +02 58 18.41 .15485 1.1180 147.1 21.3 549' 169 2024 12 09 16 06 54 33.411 +02 49 20.24 .15461 1.1178 147.1 21.3 554' 169 2024 12 09 17 06 54 24.120 +02 40 20.46 .15437 1.1175 147.0 21.3 559' 169 2024 12 09 18 06 54 14.797 +02 31 19.09 .15413 1.1173 147.0 21.3 564' 169 2024 12 09 19 06 54 05.440 +02 22 16.11 .15389 1.1170 147.0 21.3 569' 169 2024 12 09 20 06 53 56.052 +02 13 11.54 .15366 1.1167 146.9 21.2 574' 169 2024 12 09 21 06 53 46.630 +02 04 05.37 .15342 1.1165 146.9 21.2 579' 169 2024 12 09 22 06 53 37.175 +01 54 57.61 .15319 1.1162 146.9 21.2 584' 169 2024 12 09 23 06 53 27.688 +01 45 48.25 .15296 1.1160 146.8 21.2 590' 169 2024 12 10 00 06 53 18.167 +01 36 37.31 .15272 1.1157 146.8 21.2 595' 169 2024 12 10 01 06 53 08.614 +01 27 24.78 .15249 1.1154 146.7 21.2 600' 169 2024 12 10 02 06 52 59.027 +01 18 10.66 .15227 1.1152 146.7 21.2 605' 169 2024 12 10 03 06 52 49.406 +01 08 54.97 .15204 1.1149 146.6 21.2 611' 169 2024 12 10 04 06 52 39.752 +00 59 37.69 .15181 1.1147 146.6 21.2 616' 169